Weather History for Baker, MT

Change the Weather History Date:

Wednesday, December 11, 2013

  Actual Average Record
Temperature  
Mean Temperature 14 °F -  
Max Temperature 39 °F -4 °F 55 °F (2004)
Min Temperature -11 °F 12 °F -18 °F (2000)
Degree Days  
Heating Degree Days 51    
Moisture  
Dew Point 0 °F    
Average Humidity 62    
Maximum Humidity 83    
Minimum Humidity 33    
Precipitation  
Precipitation 0.00 in - - ()
Sea Level Pressure  
Sea Level Pressure 30.35 in    
Wind  
Wind Speed 6 mph (WSW)    
Max Wind Speed 17 mph    
Max Gust Speed -    
Visibility 10 miles    
Events      
Averages and records for this station are not official NWS values.
T = Trace of Precipitation, MM = Missing Value Source: NWS Daily Summary

Daily Weather History Graph

Daily Weather History Graph

Search for Another Location

Airport:

Trip Planner

Search our weather history database for the weather conditions in past years. The results will help you decide how hot, cold, wet, or windy it might be!

Date:

Astronomy

Dec. 11, 2013 Rise Set
Actual Time 7:30 AM MST 4:10 PM MST
Civil Twilight 6:55 AM MST 4:45 PM MST
Nautical Twilight 6:17 AM MST 5:23 PM MST
Astronomical Twilight 5:41 AM MST 5:59 PM MST
Moon 12:59 PM MST (12/11) 1:38 AM MST (12/11)
Length of Visible Light 9h 49m
Length of Day
8h 39m
Waxing Gibbous, 72% of the Moon is Illuminated
Dec 11
Waxing Gibbous
Dec 17
Full
Dec 25
Last Quarter
Jan 1
New
Jan 7
First Quarter

Hourly Weather History & Observations

Time (MST) Temp. Windchill Dew Point Humidity Pressure Visibility Wind Dir Wind Speed Gust Speed Precip Events Conditions
12:20 AM -5.1 °F -20.4 °F -9.9 °F 80% 30.31 in 10.0 mi West 8.1 mph - N/A   Overcast
12:51 AM -4.0 °F -14.6 °F -9.0 °F 79% 30.49 in 10.0 mi WNW 4.6 mph - N/A   Overcast
1:51 AM -2.9 °F -11.2 °F -7.1 °F 82% 30.49 in 10.0 mi West 3.5 mph - N/A   Overcast
2:49 AM -4.0 °F -12.4 °F -9.4 °F 78% 30.30 in 10.0 mi SW 3.5 mph - N/A   Scattered Clouds
2:51 AM -4.0 °F -14.6 °F -9.0 °F 79% 30.50 in 10.0 mi SW 4.6 mph - N/A   Scattered Clouds
3:51 AM -11.0 °F - -16.1 °F 78% 30.49 in 10.0 mi Calm Calm - N/A   Clear
4:51 AM -8.0 °F -16.9 °F -11.9 °F 83% 30.48 in 10.0 mi West 3.5 mph - N/A   Overcast
5:51 AM -5.1 °F - -9.9 °F 80% 30.45 in 10.0 mi Calm Calm - N/A   Overcast
6:51 AM -4.0 °F -12.4 °F -9.9 °F 76% 30.43 in 10.0 mi East 3.5 mph - N/A   Clear
7:51 AM -5.1 °F -13.6 °F -11.0 °F 76% 30.42 in 10.0 mi ESE 3.5 mph - N/A   Clear
8:51 AM -4.0 °F -12.4 °F -8.0 °F 83% 30.41 in 10.0 mi East 3.5 mph - N/A   Clear
9:51 AM 3.9 °F - -0.9 °F 80% 30.40 in 10.0 mi Calm Calm - N/A   Clear
10:51 AM 33.1 °F 24.4 °F 8.1 °F 35% 30.31 in 10.0 mi West 11.5 mph - N/A   Clear
11:51 AM 33.1 °F 24.4 °F 8.1 °F 35% 30.29 in 10.0 mi WSW 11.5 mph - N/A   Clear
12:51 PM 34.0 °F 24.2 °F 9.0 °F 35% 30.26 in 10.0 mi West 15.0 mph - N/A   Clear
1:51 PM 35.1 °F 26.4 °F 9.0 °F 34% 30.25 in 10.0 mi West 12.7 mph - N/A   Clear
2:51 PM 34.0 °F 23.4 °F 10.0 °F 37% 30.25 in 10.0 mi West 17.3 mph - N/A   Clear
3:51 PM 33.1 °F 22.6 °F 10.0 °F 38% 30.27 in 10.0 mi WSW 16.1 mph - N/A   Clear
4:51 PM 32.0 °F 23.0 °F 8.1 °F 37% 30.28 in 10.0 mi WSW 11.5 mph - N/A   Clear
5:51 PM 15.1 °F 7.7 °F 7.0 °F 70% 30.32 in 10.0 mi NNW 4.6 mph - N/A   Clear
6:51 PM 12.0 °F - 5.0 °F 73% 30.33 in 10.0 mi Calm Calm - N/A   Clear
7:51 PM 12.9 °F 6.9 °F 6.1 °F 74% 30.33 in 10.0 mi Variable 3.5 mph - N/A   Clear
8:51 PM 17.1 °F - 7.0 °F 65% 30.32 in 10.0 mi Calm Calm - N/A   Clear
9:51 PM 23.0 °F - 9.0 °F 55% 30.27 in 10.0 mi Calm Calm - N/A   Clear
10:51 PM 39.9 °F 33.4 °F 12.9 °F 33% 30.18 in 10.0 mi WSW 10.4 mph - N/A   Overcast
11:51 PM 39.0 °F 32.8 °F 12.0 °F 33% 30.18 in 10.0 mi WSW 9.2 mph - N/A   Mostly Cloudy